DW3371 Weather Reports


time (UTC)temp
C
wind
direction
speed
KPH
gust
KPH
rain 1hr
cm
rain 24hr
cm
rain mn
cm
humidity
%
barometer
mb
20260505210240 11 45 9.7 24.1 0.00 0.00 0.00 77 1012.4
20260505203233 11 23 9.7 22.5 0.00 0.00 0.00 77 1012.3
20260505193241 11 40 11.3 29.0 0.00 0.00 0.00 75 1011.7
20260505190233 12 52 12.9 30.6 0.00 0.00 0.00 73 1011.4
20260505183256 12 25 16.1 37.0 0.00 0.00 0.00 71 1011.3
20260505180234 13 355 16.1 33.8 0.00 0.00 0.00 67 1011.0
20260505173233 14 56 14.5 27.4 0.00 0.00 0.00 65 1010.9
20260505170233 15 42 14.5 29.0 0.00 0.00 0.00 62 1010.8
20260505163239 16 69 11.3 27.4 0.00 0.00 0.00 62 1010.8
20260505160237 15 52 12.9 29.0 0.00 0.00 0.00 65 1010.6
20260505153237 15 44 11.3 24.1 0.00 0.00 0.00 66 1010.6
20260505150253 15 44 9.7 27.4 0.00 0.00 0.00 64 1010.7
20260505140232 17 355 6.4 17.7 0.00 0.00 0.00 53 1010.6
20260505130230 17 5 8.0 17.7 0.00 0.00 0.00 55 1010.7
20260505123232 16 22 4.8 17.7 0.00 0.00 0.00 59 1010.7
20260505120227 16 5 9.7 19.3 0.00 0.00 0.00 61 1010.9
20260505113227 15 355 9.7 19.3 0.00 0.00 0.00 63 1011.1
20260505110231 15 35 6.4 16.1 0.00 0.00 0.00 64 1011.4
20260505100223 14 337 6.4 16.1 0.00 0.00 0.00 69 1011.6
20260505093231 13 317 4.8 12.9 0.00 0.00 0.00 70 1011.8
20260505090222 13 0 4.8 12.9 0.00 0.00 0.00 75 1011.9
20260505083223 13 39 1.6 8.0 0.00 0.00 0.00 75 1012.1
20260505080222 12 51 3.2 9.7 0.00 0.00 0.00 77 1012.1
20260505073228 11 82 1.6 4.8 0.00 0.00 0.00 82 1012.1
20260505070220 10 109 0.0 4.8 0.00 0.00 0.00 83 1012.2
20260505063222 10 109 1.6 6.4 0.00 0.00 0.00 85 1012.5
20260505060223 9 79 0.0 4.8 0.00 0.00 0.00 86 1012.4
20260505050224 8 78 0.0 6.4 0.00 0.00 0.00 87 1012.5
20260505033222 10 63 0.0 6.4 0.00 0.00 0.00 85 1012.3
20260505030221 10 63 1.6 4.8 0.00 0.00 0.00 84 1012.4
20260505023220 10 59 0.0 4.8 0.00 0.00 0.00 84 1012.6
20260505020224 10 132 0.0 0.0 0.00 0.00 0.00 83 1012.5
20260505013222 10 132 1.6 6.4 0.00 0.00 0.00 83 1012.8
20260505010220 10 112 3.2 6.4 0.00 0.00 0.00 82 1013.0
20260505003221 11 128 0.0 6.4 0.00 0.00 0.00 82 1013.2
20260505000218 11 113 3.2 8.0 0.00 0.00 0.00 82 1013.4
20260504233219 11 82 0.0 14.5 0.00 0.00 0.00 81 1013.6
20260504230209 11 87 6.4 14.5 0.00 0.00 0.00 81 1013.7
20260504223208 11 79 4.8 12.9 0.00 0.00 0.00 81 1013.7
20260504220220 11 65 4.8 9.7 0.00 0.00 0.00 80 1013.7
20260504213204 11 52 1.6 6.4 0.00 0.00 0.00 80 1013.9